When you browse on this site, cookies collect data to enhance your experience and personalize the content and advertising you see.
Visit our Privacy Policy to learn more. By continuing to use the site, you agree to this use of cookies and data.
  • In Hungary
  • List of Countries
  • For 7 days
  • Water Temperature
  • Weather Map
  • News
  • Weather Widgets
  • user-avatar
    Login

    Hourly Weather Czajewszczyzna

    Today, 6 April, Monday

    Time Temperature Precipitation Wind Pressure Humidity
    00:00 +4°C° 0 mm 1 mps 755 mmHg 66%
    01:00 +3°C° 0 mm 2 mps 755 mmHg 66%
    02:00 +3°C° 0 mm 2 mps 755 mmHg 65%
    03:00 +2°C° 0 mm 2 mps 755 mmHg 65%
    04:00 +2°C° 0 mm 2 mps 755 mmHg 65%
    05:00 +2°C° 0 mm 2 mps 755 mmHg 66%
    06:00 +3°C° 0 mm 2 mps 755 mmHg 64%
    07:00 +3°C° 0 mm 3 mps 755 mmHg 62%
    08:00 +4°C° 0 mm 3 mps 756 mmHg 59%
    09:00 +7°C° 0 mm 3 mps 756 mmHg 53%
    10:00 +9°C° 0 mm 3 mps 756 mmHg 47%
    11:00 +10°C° 0 mm 4 mps 756 mmHg 41%
    12:00 +11°C° 0 mm 4 mps 756 mmHg 39%
    13:00 +12°C° 0 mm 4 mps 755 mmHg 37%
    14:00 +13°C° 0 mm 4 mps 755 mmHg 36%
    15:00 +13°C° 0 mm 4 mps 755 mmHg 37%
    16:00 +13°C° 0 mm 4 mps 754 mmHg 38%
    17:00 +13°C° 0 mm 4 mps 754 mmHg 40%
    18:00 +11°C° 0 mm 3 mps 754 mmHg 45%
    19:00 +9°C° 0 mm 3 mps 754 mmHg 50%
    20:00 +8°C° 0 mm 3 mps 753 mmHg 55%
    21:00 +7°C° 0 mm 3 mps 753 mmHg 56%
    22:00 +7°C° 0 mm 3 mps 754 mmHg 57%
    23:00 +5°C° 0 mm 4 mps 754 mmHg 58%

    Tomorrow, 7 April, Tuesday

    Time Temperature Precipitation Wind Pressure Humidity
    00:00 +5°C° 0 mm 4 mps 753 mmHg 59%
    01:00 +4°C° 0 mm 4 mps 753 mmHg 61%
    02:00 +4°C° 0 mm 4 mps 753 mmHg 63%
    03:00 +4°C° 0 mm 4 mps 753 mmHg 66%
    04:00 +4°C° 0 mm 4 mps 753 mmHg 68%
    05:00 +3°C° 0 mm 4 mps 753 mmHg 71%
    06:00 +4°C° 0 mm 4 mps 753 mmHg 70%
    07:00 +5°C° 0 mm 5 mps 753 mmHg 69%
    08:00 +6°C° 0 mm 5 mps 752 mmHg 68%
    09:00 +8°C° 0 mm 5 mps 752 mmHg 62%
    10:00 +11°C° 0 mm 6 mps 752 mmHg 55%
    11:00 +14°C° 0 mm 6 mps 752 mmHg 49%
    12:00 +15°C° 0 mm 6 mps 752 mmHg 44%
    13:00 +16°C° 0 mm 7 mps 752 mmHg 40%
    14:00 +17°C° 0 mm 7 mps 751 mmHg 36%
    15:00 +16°C° 0 mm 6 mps 751 mmHg 40%
    16:00 +16°C° 0 mm 6 mps 751 mmHg 43%
    17:00 +16°C° 0 mm 5 mps 751 mmHg 47%
    18:00 +14°C° 0 mm 4 mps 751 mmHg 55%
    19:00 +12°C° 0 mm 4 mps 751 mmHg 64%
    20:00 +11°C° 0 mm 3 mps 751 mmHg 73%
    21:00 +10°C° 0 mm 3 mps 751 mmHg 78%
    22:00 +7°C° 0 mm 4 mps 751 mmHg 83%
    23:00 +6°C° 0 mm 4 mps 752 mmHg 89%

    Day after tomorrow, 8 April, Wednesday

    Time Temperature Precipitation Wind Pressure Humidity
    00:00 +5°C° 0 mm 3 mps 752 mmHg 88%
    01:00 +4°C° 0 mm 3 mps 752 mmHg 88%
    02:00 +4°C° 0 mm 3 mps 752 mmHg 88%
    03:00 +4°C° 0 mm 2 mps 752 mmHg 87%
    04:00 +4°C° 0 mm 2 mps 752 mmHg 86%
    05:00 +4°C° 0 mm 2 mps 752 mmHg 85%
    06:00 +5°C° 0 mm 2 mps 752 mmHg 80%
    07:00 +6°C° 0 mm 2 mps 752 mmHg 76%
    08:00 +7°C° 0 mm 2 mps 752 mmHg 71%
    09:00 +9°C° 0 mm 2 mps 752 mmHg 65%
    10:00 +10°C° 0 mm 2 mps 752 mmHg 58%
    11:00 +13°C° 0 mm 1 mps 752 mmHg 52%
    12:00 +14°C° 0 mm 2 mps 752 mmHg 48%
    13:00 +15°C° 0 mm 2 mps 751 mmHg 44%
    14:00 +16°C° 0 mm 2 mps 751 mmHg 40%
    15:00 +15°C° 0 mm 2 mps 750 mmHg 41%
    16:00 +15°C° 0 mm 2 mps 750 mmHg 42%
    17:00 +15°C° 0 mm 1 mps 749 mmHg 43%
    18:00 +14°C° 0 mm 1 mps 749 mmHg 48%
    19:00 +12°C° 0 mm 1 mps 748 mmHg 54%
    20:00 +10°C° 0 mm 1 mps 748 mmHg 59%
    21:00 +10°C° 0 mm 1 mps 748 mmHg 60%
    22:00 +9°C° 0 mm 1 mps 747 mmHg 61%
    23:00 +8°C° 0 mm 2 mps 747 mmHg 62%

    9 April, Thursday

    Time Temperature Precipitation Wind Pressure Humidity
    00:00 +8°C° 0 mm 2 mps 747 mmHg 63%
    01:00 +7°C° 0 mm 3 mps 746 mmHg 64%
    02:00 +7°C° 0 mm 3 mps 745 mmHg 65%
    03:00 +7°C° 0 mm 3 mps 745 mmHg 67%
    04:00 +7°C° 0 mm 3 mps 744 mmHg 68%
    05:00 +8°C° 0 mm 3 mps 744 mmHg 69%
    06:00 +8°C° 0.1 mm 4 mps 743 mmHg 71%
    07:00 +10°C° 0.1 mm 4 mps 743 mmHg 73%
    08:00 +10°C° 0.1 mm 5 mps 742 mmHg 75%
    09:00 +10°C° 0.1 mm 5 mps 742 mmHg 72%
    10:00 +11°C° 0.1 mm 6 mps 742 mmHg 69%
    11:00 +13°C° 0.1 mm 6 mps 742 mmHg 66%
    12:00 +11°C° 0.4 mm 6 mps 742 mmHg 71%
    13:00 +10°C° 0.4 mm 6 mps 741 mmHg 76%
    14:00 +9°C° 0.4 mm 5 mps 741 mmHg 82%
    15:00 +9°C° 0.1 mm 6 mps 741 mmHg 77%
    16:00 +10°C° 0.1 mm 6 mps 741 mmHg 71%
    17:00 +10°C° 0.1 mm 6 mps 741 mmHg 66%
    18:00 +9°C° 0 mm 5 mps 741 mmHg 72%
    19:00 +7°C° 0 mm 5 mps 741 mmHg 79%
    20:00 +6°C° 0 mm 4 mps 741 mmHg 85%
    21:00 +5°C° 0 mm 4 mps 742 mmHg 87%
    22:00 +5°C° 0 mm 3 mps 742 mmHg 90%
    23:00 +4°C° 0 mm 3 mps 742 mmHg 93%

    10 April, Friday

    Time Temperature Precipitation Wind Pressure Humidity
    00:00 +3°C° 0 mm 3 mps 742 mmHg 93%
    01:00 +3°C° 0 mm 3 mps 742 mmHg 94%
    02:00 +2°C° 0 mm 3 mps 743 mmHg 95%
    03:00 +2°C° 0 mm 3 mps 743 mmHg 95%
    04:00 +1°C° 0 mm 3 mps 743 mmHg 96%
    05:00 +2°C° 0 mm 2 mps 744 mmHg 97%
    06:00 +3°C° 0 mm 2 mps 744 mmHg 87%
    07:00 +3°C° 0 mm 2 mps 745 mmHg 77%
    08:00 +4°C° 0 mm 2 mps 745 mmHg 67%
    09:00 +4°C° 0 mm 3 mps 745 mmHg 61%
    10:00 +6°C° 0 mm 4 mps 746 mmHg 54%
    11:00 +7°C° 0 mm 4 mps 746 mmHg 48%
    12:00 +7°C° 0 mm 5 mps 746 mmHg 47%
    13:00 +8°C° 0 mm 5 mps 746 mmHg 46%
    14:00 +8°C° 0 mm 6 mps 746 mmHg 45%
    15:00 +7°C° 0 mm 6 mps 746 mmHg 46%
    16:00 +7°C° 0 mm 6 mps 746 mmHg 48%
    17:00 +5°C° 0 mm 6 mps 746 mmHg 49%
    18:00 +4°C° 0 mm 6 mps 746 mmHg 52%
    19:00 +2°C° 0 mm 5 mps 746 mmHg 55%
    20:00 0°C° 0 mm 4 mps 746 mmHg 59%
    21:00 0°C° 0 mm 4 mps 747 mmHg 62%
    22:00 0°C° 0 mm 3 mps 747 mmHg 65%
    23:00 -1°C° 0 mm 3 mps 747 mmHg 69%

    11 April, Saturday

    Time Temperature Precipitation Wind Pressure Humidity
    00:00 -2°C° 0 mm 2 mps 747 mmHg 71%
    01:00 -2°C° 0 mm 2 mps 748 mmHg 73%
    02:00 -3°C° 0 mm 2 mps 748 mmHg 75%
    03:00 -3°C° 0 mm 2 mps 748 mmHg 74%
    04:00 -1°C° 0 mm 1 mps 748 mmHg 74%
    05:00 -1°C° 0 mm 1 mps 748 mmHg 74%
    06:00 0°C° 0 mm 1 mps 748 mmHg 65%
    07:00 +2°C° 0 mm 1 mps 748 mmHg 57%
    08:00 +3°C° 0 mm 1 mps 749 mmHg 49%
    09:00 +4°C° 0 mm 1 mps 749 mmHg 44%
    10:00 +6°C° 0 mm 1 mps 749 mmHg 39%
    11:00 +7°C° 0 mm 1 mps 749 mmHg 34%
    12:00 +8°C° 0 mm 1 mps 749 mmHg 33%
    13:00 +9°C° 0 mm 1 mps 749 mmHg 33%
    14:00 +10°C° 0 mm 1 mps 748 mmHg 33%
    15:00 +10°C° 0 mm 1 mps 748 mmHg 34%
    16:00 +10°C° 0 mm 1 mps 747 mmHg 35%
    17:00 +10°C° 0 mm 1 mps 747 mmHg 36%
    18:00 +8°C° 0 mm 1 mps 747 mmHg 40%
    19:00 +7°C° 0 mm 1 mps 747 mmHg 45%
    20:00 +6°C° 0 mm 1 mps 747 mmHg 50%
    21:00 +5°C° 0 mm 1 mps 747 mmHg 50%
    22:00 +5°C° 0 mm 1 mps 747 mmHg 51%
    23:00 +5°C° 0 mm 1 mps 747 mmHg 52%
    Show more